THORAD DELTA 1 DEB, 8167

Orbit data source: Space-Track

THORAD DELTA 1 DEB, 8167 is space debris in SSO originally from a launch on Fri, 15 Nov 1974 UTC launched from the Air Force Western Test Range (AFWTR). Debris objects in space refer to the collection of defunct objects orbiting the Earth. Examples of debris include non-operational satellites, rocket bodies, and fragments generated from explosions, collisions, or faulty payload assembly.

Loading next visibility...
THORAD DELTA 1 DEB details
Identifier
8167, 1974-089AH
Orbit
SSO
Last TLE update1 day ago
Origin
Flag of USGSFC (US)
ManufacturerUnknown
MissionSpacecraft
Bus & MotorUnknown
MassUnknown
Launch date (UTC)
1974-11-15 (50 years ago)
Launch vehicleUnknown
Launch site
Air Force Western Test Range (AFWTR)
Object type
Payload
Rocket body
Debris
Shape & HBRUnknown
Radar Cross SectionSmall (<0.1 m²)

Expand to show TLE details & history

TLE from 1 day ago
0 THORAD DELTA 1 DEB
1 08167U 74089AH  24360.38756644  .00006755  00000-0  14158-1 0  9991
2 08167 101.3586 153.5901 0108217  54.6630   1.5161 13.29701700355620
Epoch: 2024-12-25T09:18Z
Definitive object data (Epoch: 2024-12-25T09:18:05.74Z)
Latitude54.66962°
Longitude-96.69186°
Altitude1,075.325 km
Speed7.359 km/s
True Right ascension09h 08m 51s
True Declination54° 30' 51"
Sunlit
Object was in full shadow at TLE epoch
Visualization TLE readout
Latitude-48.08058°
Longitude88.01834°
Altitude1,247.606 km
Speed7.191 km/s
Apparent Right ascension22h 07m 10s
Apparent Declination-44° 38' 02"
Sunlit
Object is in daylight
Visualization observer readout
Local Sidereal Time10:48:18
Azimuth125.19° SE
Elevation-81.057°
Doppler factor1
Orbital elements
Apogee altitude1,226.724 km
Perigee altitude1,063.892 km
Semi-major axis7,523.445 km
Eccentricity0.0108217
Inclination101.3586°
RAAN153.5901°
Arg. of periapsis54.663°
True anomaly1.54936°
Mean anomaly1.5161°
Eccentric anomaly1.53268°
Mean motion3.32597 °/min
BSTAR0.014158
Orbital period108.24 mins
Loading maneuver chart data...

THORAD DELTA 1 DEB Visibility forecast

Observer location: undefined°, undefined

Span
Click to sort rows by Start time (UTC) header in descending order
Start Az.
Max El. time (UTC)
Max El. Az.
Max El.
End time (UTC)
End Az.
6 mins2024-12-26 21:47:57.618Z66.656° ENE2024-12-26 21:50:57.618Z94.698° ESE14.377°2024-12-26 21:53:57.618Z121.554° SE
11 mins2024-12-26 23:32:57.618Z16.542° NNE2024-12-26 23:37:57.618Z251.362° W44.984°2024-12-26 23:43:57.618Z199.694° SSW
6 mins2024-12-27 01:20:57.618Z331.39° NNW2024-12-27 01:23:57.618Z301.209° NW16.267°2024-12-27 01:26:57.618Z273.394° WNW
11 mins2024-12-27 09:53:57.618Z146.833° SSE2024-12-27 09:58:57.618Z83.465° E42.047°2024-12-27 10:04:57.618Z350.162° N
|